Volver al catálogo

MONITOR-3

ActivoRadioaficionadoSSO
NORAD 57180·PAYLOAD·🇷🇺 Russia
Este nombre de satélite aún no ha sido confirmado por fuentes oficiales.

Lanzado Jun 27, 2023 desde Vostochny Cosmodrome

Loading…

Próximos Pases (próximas 24 horas)

TLE

ActualizadoSource: Space-Track

Época: Sep 14, 2026, 14:47 UTC

1 57180U 23091Q   26257.61617786  .00008404  00000-0  29698-3 0  9993
2 57180  97.4990 321.7761 0012233 138.7673 221.4493 15.29382849177959

Sigue MONITOR-3 en tiempo real con AllMySat

Download on the App Store